Location: Asheville, NC
(35.6000°N, 82.5500°W)
Time: 08:53:00
(UTC-05:00)

XW-2B - Pass Details

Date: 16 February 2018
Orbit: 509 x 532 km, 97.5° (Epoch: 20 February)

Event Time Altitude Azimuth Distance (km) Brightness Sun altitude
Rises 05:59:36 0° 24° (NNE) 2,625 ? -16.1°
Reaches altitude 10° 06:01:54 10° 35° (NE) 1,737 ? -15.6°
Maximum altitude 06:05:12 29° 97° (E) 957 ? -15.0°
Drops below altitude 10° 06:08:29 10° 159° (SSE) 1,734 ? -14.3°
Sets 06:10:46 0° 171° (S) 2,620 ? -13.8°
